Time,TemperatureF,DewpointF,PressureIn,WindDirection,WindDirectionDegrees,WindSpeedMPH,WindSpeedGustMPH,Humidity,HourlyPrecipIn,Conditions,Clouds,dailyrainin,SoftwareType,DateUTC
2013-05-13 00:00:00,53.9,53.0,30.00,NNW,346,4.0,-999.0,97,-99.99,,,0.57,weatherlink.com 1.10,2013-05-13 07:00:00,
2013-05-13 00:21:00,53.9,53.0,30.00,North,355,3.0,-999.0,97,-99.99,,,0.00,weatherlink.com 1.10,2013-05-13 07:21:00,
2013-05-13 00:30:00,53.8,53.0,29.99,North,351,1.0,-999.0,97,-99.99,,,0.00,weatherlink.com 1.10,2013-05-13 07:30:00,
2013-05-13 00:45:00,53.8,53.0,30.00,North,5,2.0,-999.0,97,-99.99,,,0.00,weatherlink.com 1.10,2013-05-13 07:45:00,
2013-05-13 01:00:00,53.6,53.0,29.99,NNW,337,3.0,-999.0,97,-99.99,,,0.00,weatherlink.com 1.10,2013-05-13 08:00:00,
2013-05-13 01:22:00,53.2,52.0,29.99,NNW,344,4.0,-999.0,97,-99.99,,,0.00,weatherlink.com 1.10,2013-05-13 08:22:00,
2013-05-13 01:31:00,53.2,52.0,29.99,NW,317,5.0,-999.0,97,-99.99,,,0.01,weatherlink.com 1.10,2013-05-13 08:31:00,
2013-05-13 01:46:00,53.1,52.0,29.99,NW,323,0.0,-999.0,97,-99.99,,,0.01,weatherlink.com 1.10,2013-05-13 08:46:00,
2013-05-13 02:01:00,53.3,53.0,29.98,NW,323,0.0,-999.0,97,-99.99,,,0.01,weatherlink.com 1.10,2013-05-13 09:01:00,
2013-05-13 02:21:00,53.2,52.0,29.98,NW,323,0.0,-999.0,97,-99.99,,,0.01,weatherlink.com 1.10,2013-05-13 09:21:00,
2013-05-13 02:30:00,53.1,52.0,29.98,NW,323,0.0,-999.0,97,-99.99,,,0.02,weatherlink.com 1.10,2013-05-13 09:30:00,
2013-05-13 02:45:00,53.5,53.0,29.98,WNW,283,0.0,-999.0,98,-99.99,,,0.02,weatherlink.com 1.10,2013-05-13 09:45:00,
2013-05-13 03:01:00,53.6,53.0,29.98,West,281,0.0,-999.0,97,-99.99,,,0.02,weatherlink.com 1.10,2013-05-13 10:01:00,
2013-05-13 03:21:00,53.7,53.0,29.98,West,281,0.0,-999.0,97,-99.99,,,0.02,weatherlink.com 1.10,2013-05-13 10:21:00,
2013-05-13 03:31:00,53.7,53.0,29.98,West,281,0.0,-999.0,97,-99.99,,,0.02,weatherlink.com 1.10,2013-05-13 10:31:00,
2013-05-13 03:46:00,53.7,53.0,29.98,WNW,296,0.0,-999.0,97,-99.99,,,0.02,weatherlink.com 1.10,2013-05-13 10:46:00,
2013-05-13 04:01:00,53.8,53.0,29.98,WNW,296,0.0,-999.0,97,-99.99,,,0.02,weatherlink.com 1.10,2013-05-13 11:01:00,
2013-05-13 04:22:00,53.7,53.0,29.97,WNW,294,0.0,-999.0,97,-99.99,,,0.02,weatherlink.com 1.10,2013-05-13 11:22:00,
2013-05-13 04:31:00,53.7,53.0,29.97,WNW,295,0.0,-999.0,97,-99.99,,,0.02,weatherlink.com 1.10,2013-05-13 11:31:00,
2013-05-13 04:46:00,53.9,53.0,29.97,SW,231,0.0,-999.0,96,-99.99,,,0.02,weatherlink.com 1.10,2013-05-13 11:46:00,
2013-05-13 05:01:00,54.1,53.0,29.96,West,274,3.0,-999.0,96,-99.99,,,0.02,weatherlink.com 1.10,2013-05-13 12:01:00,
2013-05-13 05:22:00,54.2,53.0,29.96,SSE,160,3.0,-999.0,94,-99.99,,,0.02,weatherlink.com 1.10,2013-05-13 12:22:00,
2013-05-13 05:31:00,52.1,51.0,29.95,SE,142,0.0,-999.0,95,-99.99,,,0.02,weatherlink.com 1.10,2013-05-13 12:31:00,
2013-05-13 05:46:00,52.0,51.0,29.95,SE,141,0.0,-999.0,96,-99.99,,,0.02,weatherlink.com 1.10,2013-05-13 12:46:00,
2013-05-13 06:01:00,52.0,51.0,29.95,SE,141,0.0,-999.0,96,-99.99,,,0.02,weatherlink.com 1.10,2013-05-13 13:01:00,
2013-05-13 06:22:00,51.9,51.0,29.95,SE,141,0.0,-999.0,96,-99.99,,,0.02,weatherlink.com 1.10,2013-05-13 13:22:00,
2013-05-13 06:31:00,52.1,51.0,29.95,SE,141,0.0,-999.0,97,-99.99,,,0.02,weatherlink.com 1.10,2013-05-13 13:31:00,
2013-05-13 06:46:00,52.2,51.0,29.94,SE,141,0.0,-999.0,97,-99.99,,,0.02,weatherlink.com 1.10,2013-05-13 13:46:00,
2013-05-13 07:01:00,52.3,52.0,29.94,SE,141,0.0,-999.0,97,-99.99,,,0.02,weatherlink.com 1.10,2013-05-13 14:01:00,
2013-05-13 07:22:00,51.9,51.0,29.94,ESE,103,0.0,-999.0,97,-99.99,,,0.02,weatherlink.com 1.10,2013-05-13 14:22:00,
2013-05-13 07:31:00,52.0,51.0,29.93,East,80,0.0,-999.0,97,-99.99,,,0.02,weatherlink.com 1.10,2013-05-13 14:31:00,
2013-05-13 07:46:00,52.7,52.0,29.93,NNE,18,3.0,-999.0,98,-99.99,,,0.02,weatherlink.com 1.10,2013-05-13 14:46:00,
2013-05-13 08:01:00,52.8,52.0,29.93,NNE,32,0.0,-999.0,97,-99.99,,,0.02,weatherlink.com 1.10,2013-05-13 15:01:00,
2013-05-13 08:22:00,53.3,53.0,29.93,NNE,33,0.0,-999.0,98,-99.99,,,0.02,weatherlink.com 1.10,2013-05-13 15:22:00,
2013-05-13 08:31:00,53.7,53.0,29.92,SSE,156,2.0,-999.0,97,-99.99,,,0.02,weatherlink.com 1.10,2013-05-13 15:31:00,
2013-05-13 08:46:00,54.1,53.0,29.92,SSE,163,3.0,-999.0,97,-99.99,,,0.02,weatherlink.com 1.10,2013-05-13 15:46:00,
2013-05-13 09:01:00,55.0,54.0,29.92,South,184,0.0,-999.0,97,-99.99,,,0.02,weatherlink.com 1.10,2013-05-13 16:01:00,
2013-05-13 09:22:00,56.2,55.0,29.90,South,181,0.0,-999.0,96,-99.99,,,0.02,weatherlink.com 1.10,2013-05-13 16:22:00,
2013-05-13 09:31:00,56.5,54.0,29.90,NE,34,0.0,-999.0,92,-99.99,,,0.02,weatherlink.com 1.10,2013-05-13 16:31:00,
2013-05-13 09:46:00,56.5,54.0,29.89,SE,140,2.0,-999.0,91,-99.99,,,0.02,weatherlink.com 1.10,2013-05-13 16:46:00,
2013-05-13 10:01:00,56.9,54.0,29.90,SE,137,0.0,-999.0,91,-99.99,,,0.03,weatherlink.com 1.10,2013-05-13 17:01:00,
2013-05-13 10:22:00,56.7,54.0,29.90,SSE,165,0.0,-999.0,91,-99.99,,,0.03,weatherlink.com 1.10,2013-05-13 17:22:00,
2013-05-13 10:31:00,56.6,54.0,29.90,South,173,2.0,-999.0,91,-99.99,,,0.03,weatherlink.com 1.10,2013-05-13 17:31:00,
2013-05-13 10:46:00,56.3,53.0,29.90,West,278,0.0,-999.0,88,-99.99,,,0.04,weatherlink.com 1.10,2013-05-13 17:46:00,
2013-05-13 11:01:00,56.4,53.0,29.90,WNW,302,0.0,-999.0,89,-99.99,,,0.05,weatherlink.com 1.10,2013-05-13 18:01:00,
2013-05-13 11:23:00,56.9,54.0,29.90,NW,309,0.0,-999.0,90,-99.99,,,0.05,weatherlink.com 1.10,2013-05-13 18:23:00,
2013-05-13 11:32:00,56.1,53.0,29.90,South,170,0.0,-999.0,89,-99.99,,,0.08,weatherlink.com 1.10,2013-05-13 18:32:00,
2013-05-13 11:47:00,55.1,52.0,29.88,WNW,282,3.0,-999.0,88,-99.99,,,0.09,weatherlink.com 1.10,2013-05-13 18:47:00,
2013-05-13 12:02:00,56.0,53.0,29.88,WNW,289,0.0,-999.0,90,-99.99,,,0.09,weatherlink.com 1.10,2013-05-13 19:02:00,
2013-05-13 12:22:00,56.4,52.0,29.89,South,174,0.0,-999.0,86,-99.99,,,0.11,weatherlink.com 1.10,2013-05-13 19:22:00,
2013-05-13 12:31:00,55.1,52.0,29.88,WSW,245,0.0,-999.0,88,-99.99,,,0.13,weatherlink.com 1.10,2013-05-13 19:31:00,
2013-05-13 12:46:00,55.3,53.0,29.88,WSW,251,0.0,-999.0,91,-99.99,,,0.15,weatherlink.com 1.10,2013-05-13 19:46:00,
2013-05-13 13:01:00,56.0,54.0,29.88,SSW,192,3.0,-999.0,93,-99.99,,,0.15,weatherlink.com 1.10,2013-05-13 20:01:00,
2013-05-13 13:22:00,56.7,54.0,29.89,SSW,207,2.0,-999.0,90,-99.99,,,0.18,weatherlink.com 1.10,2013-05-13 20:22:00,
2013-05-13 13:31:00,55.6,53.0,29.89,NNE,31,0.0,-999.0,89,-99.99,,,0.19,weatherlink.com 1.10,2013-05-13 20:31:00,
2013-05-13 13:46:00,55.5,52.0,29.89,SE,142,0.0,-999.0,89,-99.99,,,0.20,weatherlink.com 1.10,2013-05-13 20:46:00,
2013-05-13 14:01:00,53.5,50.0,29.90,West,270,3.0,-999.0,89,-99.99,,,0.24,weatherlink.com 1.10,2013-05-13 21:01:00,
2013-05-13 14:22:00,52.3,50.0,29.92,NNW,348,2.0,-999.0,90,-99.99,,,0.27,weatherlink.com 1.10,2013-05-13 21:22:00,
2013-05-13 14:31:00,51.5,49.0,29.92,East,86,1.0,-999.0,91,-99.99,,,0.32,weatherlink.com 1.10,2013-05-13 21:31:00,
2013-05-13 14:46:00,52.5,50.0,29.92,NW,324,3.0,-999.0,92,-99.99,,,0.32,weatherlink.com 1.10,2013-05-13 21:46:00,
2013-05-13 15:02:00,52.9,51.0,29.93,NW,321,2.0,-999.0,92,-99.99,,,0.32,weatherlink.com 1.10,2013-05-13 22:02:00,
2013-05-13 15:22:00,52.1,50.0,29.94,NE,50,5.0,-999.0,92,-99.99,,,0.36,weatherlink.com 1.10,2013-05-13 22:22:00,
2013-05-13 15:31:00,51.4,49.0,29.95,ENE,71,0.0,-999.0,91,-99.99,,,0.37,weatherlink.com 1.10,2013-05-13 22:31:00,
2013-05-13 15:46:00,50.9,48.0,29.95,ENE,74,0.0,-999.0,91,-99.99,,,0.38,weatherlink.com 1.10,2013-05-13 22:46:00,
2013-05-13 16:01:00,51.3,49.0,29.96,SSE,167,0.0,-999.0,92,-99.99,,,0.39,weatherlink.com 1.10,2013-05-13 23:01:00,
2013-05-13 16:22:00,51.4,49.0,29.96,NE,55,1.0,-999.0,92,-99.99,,,0.41,weatherlink.com 1.10,2013-05-13 23:22:00,
2013-05-13 16:31:00,52.3,50.0,29.96,ENE,64,2.0,-999.0,91,-99.99,,,0.41,weatherlink.com 1.10,2013-05-13 23:31:00,
2013-05-13 16:46:00,52.6,50.0,29.98,South,186,1.0,-999.0,89,-99.99,,,0.41,weatherlink.com 1.10,2013-05-13 23:46:00,
2013-05-13 17:01:00,50.9,48.0,30.00,North,11,1.0,-999.0,89,-99.99,,,0.48,weatherlink.com 1.10,2013-05-14 00:01:00,
2013-05-13 17:22:00,50.9,48.0,30.00,NE,47,1.0,-999.0,90,-99.99,,,0.48,weatherlink.com 1.10,2013-05-14 00:22:00,
2013-05-13 17:31:00,51.2,48.0,30.01,SE,137,0.0,-999.0,88,-99.99,,,0.48,weatherlink.com 1.10,2013-05-14 00:31:00,
2013-05-13 17:46:00,51.1,48.0,30.01,ENE,57,1.0,-999.0,89,-99.99,,,0.48,weatherlink.com 1.10,2013-05-14 00:46:00,
2013-05-13 18:01:00,50.5,48.0,30.02,East,80,0.0,-999.0,90,-99.99,,,0.49,weatherlink.com 1.10,2013-05-14 01:01:00,
2013-05-13 18:19:00,50.8,48.0,30.02,East,82,0.0,-999.0,90,-99.99,,,0.49,weatherlink.com 1.10,2013-05-14 01:19:00,
2013-05-13 18:32:00,50.3,47.0,30.04,West,262,2.0,-999.0,89,-99.99,,,0.49,weatherlink.com 1.10,2013-05-14 01:32:00,
2013-05-13 18:47:00,50.2,47.0,30.05,SE,145,0.0,-999.0,90,-99.99,,,0.49,weatherlink.com 1.10,2013-05-14 01:47:00,
2013-05-13 19:02:00,50.1,47.0,30.05,ENE,72,0.0,-999.0,90,-99.99,,,0.49,weatherlink.com 1.10,2013-05-14 02:02:00,
2013-05-13 19:17:00,50.2,47.0,30.06,SSE,158,0.0,-999.0,90,-99.99,,,0.50,weatherlink.com 1.10,2013-05-14 02:17:00,
2013-05-13 19:32:00,50.3,48.0,30.07,North,5,0.0,-999.0,90,-99.99,,,0.51,weatherlink.com 1.10,2013-05-14 02:32:00,
2013-05-13 19:47:00,50.1,48.0,30.08,East,96,0.0,-999.0,91,-99.99,,,0.52,weatherlink.com 1.10,2013-05-14 02:47:00,
2013-05-13 20:02:00,49.9,48.0,30.08,NNE,24,4.0,-999.0,92,-99.99,,,0.52,weatherlink.com 1.10,2013-05-14 03:02:00,
2013-05-13 20:17:00,49.7,48.0,30.09,NNW,343,0.0,-999.0,92,-99.99,,,0.53,weatherlink.com 1.10,2013-05-14 03:17:00,
2013-05-13 20:32:00,49.4,48.0,30.09,NNW,343,0.0,-999.0,93,-99.99,,,0.53,weatherlink.com 1.10,2013-05-14 03:32:00,
2013-05-13 20:47:00,48.7,47.0,30.10,NW,324,0.0,-999.0,93,-99.99,,,0.53,weatherlink.com 1.10,2013-05-14 03:47:00,
2013-05-13 21:02:00,48.4,47.0,30.11,NW,324,0.0,-999.0,93,-99.99,,,0.53,weatherlink.com 1.10,2013-05-14 04:02:00,
2013-05-13 21:17:00,48.2,47.0,30.12,WNW,292,0.0,-999.0,94,-99.99,,,0.53,weatherlink.com 1.10,2013-05-14 04:17:00,
2013-05-13 21:32:00,48.1,47.0,30.12,WNW,292,0.0,-999.0,94,-99.99,,,0.53,weatherlink.com 1.10,2013-05-14 04:32:00,
2013-05-13 21:47:00,48.0,47.0,30.13,WNW,292,0.0,-999.0,95,-99.99,,,0.53,weatherlink.com 1.10,2013-05-14 04:47:00,
2013-05-13 22:02:00,47.7,46.0,30.14,SSW,196,0.0,-999.0,95,-99.99,,,0.53,weatherlink.com 1.10,2013-05-14 05:02:00,
2013-05-13 22:17:00,47.5,46.0,30.14,NNW,336,0.0,-999.0,95,-99.99,,,0.53,weatherlink.com 1.10,2013-05-14 05:17:00,
2013-05-13 22:32:00,47.6,46.0,30.14,SSW,203,0.0,-999.0,95,-99.99,,,0.53,weatherlink.com 1.10,2013-05-14 05:32:00,
2013-05-13 22:47:00,47.9,46.0,30.14,WSW,238,0.0,-999.0,94,-99.99,,,0.53,weatherlink.com 1.10,2013-05-14 05:47:00,
2013-05-13 23:02:00,47.9,46.0,30.14,South,169,0.0,-999.0,93,-99.99,,,0.53,weatherlink.com 1.10,2013-05-14 06:02:00,
2013-05-13 23:17:00,47.9,46.0,30.15,South,187,1.0,-999.0,93,-99.99,,,0.53,weatherlink.com 1.10,2013-05-14 06:17:00,
2013-05-13 23:32:00,47.6,45.0,30.15,South,188,0.0,-999.0,92,-99.99,,,0.53,weatherlink.com 1.10,2013-05-14 06:32:00,
2013-05-13 23:47:00,46.9,45.0,30.15,WNW,303,0.0,-999.0,93,-99.99,,,0.53,weatherlink.com 1.10,2013-05-14 06:47:00,